Home   Weather   Khartoum   Past weeks

Flag for Sudan Past Weather in Khartoum, Sudan — Yesterday and Last 2 Weeks

Now
90 °F

Clear.


Feels Like: 90 °F
Forecast: 86 / 104 °F
Wind: 10 mph from South

Location: Khartoum Airport

Current Time: Aug 30, 2016 at 10:11:22 PM

Latest Report: Aug 30, 2016 at 9:30 PM


Visibility: 10 mi

Pressure: 29.86 "Hg

Humidity: 41%

Dew Point: 63 °F

Location of KhartoumLocation

Past Weather in Khartoum — Graph

°F

Khartoum Temperature Yesterday

Maximum temperature yesterday: 102 °F (at 3:30 PM)
Minimum temperature yesterday: 84 °F (at 7:00 AM)
Average temperature yesterday: 93 °F

High & Low Weather Summary for the Past Weeks

 TemperatureHumidityPressure
High106 °F (Aug 16, 4:30 PM)79% (Aug 21, 8:00 AM)29.95 "Hg (Aug 21, 8:00 AM)
Low73 °F (Aug 20, 3:30 AM)15% (Aug 24, 7:00 PM)29.68 "Hg (Aug 29, 5:30 PM)
Average89 °F45%29.83 "Hg
* Reported Aug 15 9:00 PM — Aug 30 9:00 PM, Khartoum, Weather by CustomWeather, © 2016

Note: Actual official high and low records may vary slightly from our data, if they occured in-between our weather recording intervals... More about our weather records

Advertising

Khartoum Weather History for the Previous 24 Hours

Scroll right to see more
 ConditionsComfort  
Time TempWeatherWind HumidityBarometerVisibility
9:00 PM
Tue, Aug 30
90 °FClear.10 mph41%29.86 "Hg10 mi
8:30 PM91 °FClear.12 mph41%29.86 "Hg10 mi
8:00 PM91 °FClear.7 mph41%29.83 "Hg10 mi
7:30 PM93 °FClear.12 mph36%29.83 "Hg10 mi
7:00 PM93 °FSunny.10 mph36%29.80 "Hg10 mi
6:30 PM95 °FSunny.12 mph34%29.80 "Hg10 mi
6:00 PM95 °FSunny.14 mph34%29.80 "Hg10 mi
5:30 PM95 °FSunny.16 mph30%29.80 "Hg10 mi
5:00 PM95 °FSunny.13 mph30%29.80 "Hg10 mi
4:30 PM97 °FSunny.15 mph30%29.80 "Hg10 mi
4:00 PM97 °FSunny.14 mph30%29.80 "Hg10 mi
3:30 PM97 °FSunny.15 mph30%29.80 "Hg10 mi
3:00 PM97 °FSunny.14 mph30%29.80 "Hg10 mi
2:30 PM95 °FSunny.16 mph30%29.80 "Hg10 mi
2:00 PM95 °FSunny.15 mph30%29.80 "Hg10 mi
1:00 PM93 °FSunny.16 mph36%29.83 "Hg10 mi
12:00 PM90 °FSunny.18 mph38%29.86 "Hg10 mi
11:30 AM90 °FSunny.13 mph41%29.86 "Hg10 mi
11:00 AM88 °FSunny.17 mph46%29.86 "Hg10 mi
10:30 AM88 °FSunny.20 mph46%29.86 "Hg10 mi
10:00 AM88 °FSunny.15 mph38%29.83 "Hg10 mi
9:30 AM86 °FSunny.12 mph43%29.83 "Hg10 mi
9:00 AM84 °FSunny.8 mph45%29.83 "Hg10 mi
8:30 AM84 °FSunny.8 mph45%29.83 "Hg10 mi
8:00 AM82 °FSunny.13 mph42%29.80 "Hg10 mi
7:30 AM81 °FSunny.14 mph45%29.80 "Hg10 mi
7:00 AM79 °FPartly sunny.12 mph58%29.80 "HgN/A
6:30 AM79 °FPassing clouds.23 mph58%29.80 "HgN/A
6:00 AM77 °FPassing clouds.14 mph61%29.80 "HgN/A
5:30 AM77 °FClear.14 mph61%29.80 "Hg10 mi
5:00 AM77 °FClear.24 mph61%29.83 "Hg10 mi
4:30 AM77 °FRain. Passing clouds.23 mph74%29.83 "HgN/A
4:00 AM79 °FPassing clouds.21 mph61%29.86 "HgN/A
3:30 AM77 °FPassing clouds.23 mph65%29.83 "Hg5 mi
3:00 AM82 °FPassing clouds.21 mph51%29.83 "HgN/A
2:30 AM86 °FPassing clouds.18 mph38%29.80 "HgN/A
2:00 AM88 °FClear.16 mph35%29.77 "Hg10 mi
1:30 AM90 °FClear.13 mph33%29.77 "Hg10 mi
1:00 AM90 °FClear.15 mph29%29.77 "Hg10 mi
12:30 AM90 °FClear.15 mph29%29.74 "Hg10 mi
12:00 AM88 °FClear.16 mph31%29.77 "Hg10 mi
11:30 PM
Mon, Aug 29
90 °FClear.21 mph33%29.77 "Hg10 mi
11:00 PM90 °FClear.21 mph36%29.77 "Hg10 mi
10:30 PM93 °FLight rain. Passing clouds.21 mph32%29.77 "HgN/A
10:00 PM95 °FClear.18 mph30%29.80 "Hg10 mi
Weather by CustomWeather, © 2016

See weather overviewHow to use our weather pages